Tracking 19794 objects as of 22-Jul-2019
HD Live streaming from Space Station
objects crossing your sky now

FENGYUN 1C DEB

Track FENGYUN 1C DEB now!
10-day predictions


NORAD ID: 33674
Int'l Code: 1999-025DFK
Perigee: 843.1 km
Apogee: 1,182.5 km
Inclination: 98.6 °
Period: 105.2 minutes
Semi major axis: 7383 km
RCS: 0.0036 m2 (small)
Launch date: May 10, 1999
Source: People's Republic of China (PRC)
Launch site: Taiyaun Space Center, China (TSC)

Note: This is SATELLITE DEBRIS
aabbcc
Your satellite tracking list
Your tracking list is empty




NASA's NSSDC Master Catalog

Two Line Element Set (TLE):
1 33674U 99025DFK 19202.67146477  .00000136  00000-0  16956-3 0  9994
2 33674  98.6197 100.2878 0229784 346.8307  12.6906 13.68309226564441
Source of the keplerian elements: AFSPC